sat.trackr.live / text

‹ back to catalog

DONGPO 05

NORAD 53449 · 2022-098F

PAYLOAD ACTIVE UNKNOWN

§ Identity

Operator
Country
PRC
Launch date
2022-08-10
Launch site
TAISC
Launch vehicle
Mass (kg)
RCS (m²)

External: N2YO · Heavens-Above · Gunter

§ Orbital elements

Epoch: 2026-05-24T21:17:44.064384Z

Period
91.47 min
Inclination
97.5451°
Eccentricity
0.0001087
Mean motion
15.74202668 rev/d
Perigee alt
346.2 km
Apogee alt
347.6 km
Semi-major
6,725.0 km
B*
6.8616e-4
RAAN
275.0008°
Arg perigee
142.3007°
Mean anomaly
217.8333°
Rev number
21,119

§ Raw data

DONGPO 051 53449U 22098F   26144.88731556  .00099107  00000+0  68616-3 0  99912 53449  97.5451 275.0008 0001087 142.3007 217.8333 15.74202668211195

JSON: /api/v1/satellites/53449 · /tle

For live sub-satellite position, see the globe view (requires WebGL).

§ Visibility from observer

Set your observer location to see the next 7 days of passes ≥ 10°. The values pass through the URL so the page stays shareable.

No JS? Fill the form by hand. The geolocation button needs JavaScript.